Weather in Novokhvalynskiy

Russia / Republic of Bashkortostan     52°37′42″N   56°44′46″E
temp.,
°C
wind,
m/s
gust,
m/s
humid.,
%
clouds,
%
prec.,
mm/h
press.,
hPa
HPBL,
m
7 march, sun
sun723:00−10se1191100 0.0 101321
02:00−10e1193100 0.0 101121
05:00−9ne1297100 0.5 100948
08:00−9n2496100 1.0 1008199
11:00−8nnw4790100 1.4 1007570
14:00−7nw5878100 0.1 1008828
17:00−9nw588368 0.1 1010795
20:00−16wnw129637 0.0 101320
8 march, mon
mon823:00−17wsw1110060 0.0 101420
02:00−16s249898 0.1 1014121
05:00−16s499799 0.3 1013314
08:00−15s51495100 0.2 1011481
11:00−11ssw81692100 0.9 1009790
14:00−6sw91693100 1.6 10081186
17:00−4sw81594100 3.2 10081154
20:00−5sw71395100 0.9 10091044
9 march, tue
tue923:00−5sw61295100 1.8 1010816
02:00−4ssw61296100 1.3 1009832
05:00−5ssw71495100 2.6 1008760
08:00−6ssw61495100 1.3 1008714
11:00−4sw61294100 2.3 1008791
14:00−3sw61093100 0.7 1008834
17:00−5nw3693100 2.6 1009450
20:00−8ene1196100 0.3 100821
10 march, wed
wed1023:00−7ene2596100 1.1 1007194
02:00−5sw1498100 2.6 1004238
05:00−10wnw5995100 4.7 1004413
08:00−13wnw4109699 0.1 1006352
11:00−12wnw379699 0.1 1007357
14:00−11wnw4792100 0.1 1009570
17:00−12wnw4691100 0.3 1011713
20:00−15w2397100 0.3 1013101
11 march, thu
thu1123:00−18wnw2310099 0.4 101547
02:00−23wnw1210099 0.0 101520
05:00−26wnw11100100 0.1 101819
08:00−28nw11100100 0.0 102019
11:00−21wnw2392100 0.0 1021322
14:00−19wnw359275 0.0 1021406
17:00−19wnw469275 0.0 1022490
20:00−25w229887 0.0 102420